Grand Forks, ND

8:01 AM CDT on July 26, 2017 (GMT -0500)
Grand Forks International

Weather History for KGFK - May, 2012

Change the Weather History Date:

Sunday, May 20, 2012

  Actual Average Record
Temperature  
Mean Temperature 55 °F 56 °F  
Max Temperature 70 °F 69 °F 91 °F (1955)
Min Temperature 39 °F 43 °F 28 °F (1969)
Degree Days  
Heating Degree Days 10 9  
Month to date heating degree days 145 250  
Since 1 July heating degree days 7371 9328  
Cooling Degree Days 0 1  
Month to date cooling degree days 16 5  
Year to date cooling degree days 16 6  
Growing Degree Days 4 (Base 50)    
Moisture  
Dew Point 44 °F    
Average Humidity 67    
Maximum Humidity 100    
Minimum Humidity 33    
Precipitation  
Precipitation 0.00 in 0.10 in 1.57 in (1987)
Month to date precipitation 0.98 1.63  
Year to date precipitation 5.07 4.67  
Snow  
Snow 0.00 in 0.00 in T in (1963)
Month to date snowfall 0.0 0.1  
Since 1 July snowfall 22.8 47.4  
Snow Depth 0.00 in    
Sea Level Pressure  
Sea Level Pressure 30.10 in    
Wind  
Wind Speed 7 mph (WNW)    
Max Wind Speed 18 mph    
Max Gust Speed 25 mph    
Visibility 7 miles    
Events Fog    
T = Trace of Precipitation, MM = Missing Value Source: NWS Daily Summary

Daily Weather History Graph

Daily Weather History Graph

Search for Another Location

Airport or City:

Trip Planner

Search our weather history database for the weather conditions in past years. The results will help you decide how hot, cold, wet, or windy it might be!

Date:

Astronomy

May. 20, 2012 Rise Set
Actual Time 5:43 AM CDT 9:07 PM CDT
Civil Twilight 5:05 AM CDT 9:45 PM CDT
Nautical Twilight 4:15 AM CDT 10:36 PM CDT
Astronomical Twilight 3:10 AM CDT 11:42 PM CDT
Moon 5:25 AM CDT (5/20) 9:08 PM CDT (5/20)
Length of Visible Light 16h 40m
Length of Day
15h 24m
Waning Crescent, 0% of the Moon is Illuminated
May 20
Waning Crescent
May 20
New
May 28
First Quarter
Jun 4
Full
Jun 11
Last Quarter

Hourly Weather History & Observations

Time (CDT) Temp. Windchill Dew Point Humidity Pressure Visibility Wind Dir Wind Speed Gust Speed Precip Events Conditions
12:53 AM 42.1 °F 38.4 °F 42.1 °F 100% 30.04 in 7.0 mi NW 5.8 mph - N/A   Clear
1:00 AM 42.8 °F 39.3 °F 41.0 °F 93% 30.03 in 1.2 mi NW 5.8 mph - N/A   Clear
1:22 AM 42.8 °F - 42.8 °F 100% 30.04 in 7.0 mi Calm Calm - N/A   Clear
1:53 AM 42.1 °F - 41.0 °F 96% 30.06 in 7.0 mi Calm Calm - N/A   Partly Cloudy
2:53 AM 42.1 °F - 42.1 °F 100% 30.05 in 7.0 mi Calm Calm - N/A   Partly Cloudy
3:53 AM 39.0 °F - 39.0 °F 100% 30.09 in 7.0 mi Calm Calm - N/A   Partly Cloudy
4:28 AM 39.2 °F - 39.2 °F 100% 30.07 in 1.5 mi Calm Calm - N/A   Mostly Cloudy
4:53 AM 41.0 °F - 39.9 °F 96% 30.09 in 1.5 mi Calm Calm - N/A   Scattered Clouds
5:15 AM 39.2 °F 37.0 °F 39.2 °F 100% 30.06 in 3.0 mi West 3.5 mph - N/A   Mostly Cloudy
5:53 AM 41.0 °F 37.1 °F 41.0 °F 100% 30.08 in 4.0 mi WNW 5.8 mph - N/A Fog Patches of Fog
6:53 AM 44.1 °F 42.5 °F 43.0 °F 96% 30.10 in 9.0 mi West 3.5 mph - N/A   Mostly Cloudy
7:47 AM 46.4 °F 43.5 °F 46.4 °F 100% 30.09 in 1.5 mi West 5.8 mph - N/A   Mostly Cloudy
7:53 AM 46.9 °F - 46.0 °F 97% 30.11 in 0.2 mi West 8.1 mph - N/A Fog Fog
7:58 AM 46.4 °F 41.9 °F 46.4 °F 100% 30.09 in 0.2 mi West 9.2 mph - N/A Fog Fog
8:27 AM 50.0 °F - 48.2 °F 94% 30.09 in 0.5 mi WNW 6.9 mph - N/A   Mostly Cloudy
8:35 AM 50.0 °F - 50.0 °F 100% 30.09 in 1.5 mi WNW 6.9 mph - N/A   Mostly Cloudy
8:39 AM 50.0 °F - 50.0 °F 100% 30.09 in 3.0 mi WNW 6.9 mph - N/A   Mostly Cloudy
8:53 AM 51.1 °F - 50.0 °F 96% 30.11 in 9.0 mi WNW 6.9 mph - N/A   Mostly Cloudy
9:07 AM 53.6 °F - 51.8 °F 94% 30.09 in 10.0 mi West 5.8 mph - N/A   Mostly Cloudy
9:53 AM 59.0 °F - 50.0 °F 72% 30.12 in 10.0 mi NNW 8.1 mph - N/A   Mostly Cloudy
10:53 AM 63.0 °F - 45.0 °F 52% 30.12 in 10.0 mi North 10.4 mph - N/A   Mostly Cloudy
11:53 AM 64.9 °F - 42.1 °F 43% 30.13 in 10.0 mi NW 11.5 mph 20.7 mph N/A   Mostly Cloudy
12:53 PM 66.0 °F - 42.1 °F 42% 30.14 in 10.0 mi NW 15.0 mph - N/A   Mostly Cloudy
1:53 PM 66.9 °F - 42.1 °F 40% 30.12 in 10.0 mi WNW 12.7 mph 21.9 mph N/A   Mostly Cloudy
2:53 PM 69.1 °F - 43.0 °F 39% 30.12 in 10.0 mi WNW 15.0 mph 20.7 mph N/A   Scattered Clouds
3:53 PM 68.0 °F - 42.1 °F 39% 30.12 in 10.0 mi NNW 16.1 mph 20.7 mph N/A   Scattered Clouds
4:53 PM 69.8 °F - 41.0 °F 35% 30.10 in 10.0 mi NNW 13.8 mph - N/A   Scattered Clouds
5:53 PM 69.1 °F - 39.9 °F 35% 30.11 in 10.0 mi NW 17.3 mph 21.9 mph N/A   Partly Cloudy
6:53 PM 68.0 °F - 39.0 °F 35% 30.10 in 10.0 mi NW 13.8 mph - N/A   Partly Cloudy
7:53 PM 64.9 °F - 42.1 °F 43% 30.10 in 10.0 mi NW 4.6 mph - N/A   Partly Cloudy
8:53 PM 59.0 °F - 46.0 °F 62% 30.11 in 10.0 mi Calm Calm - N/A   Partly Cloudy
9:53 PM 53.1 °F - 45.0 °F 74% 30.13 in 10.0 mi Calm Calm - N/A   Clear
10:53 PM 48.0 °F - 43.0 °F 83% 30.13 in 10.0 mi SSW 5.8 mph - N/A   Clear
11:53 PM 48.0 °F - 43.0 °F 83% 30.14 in 10.0 mi SW 3.5 mph - N/A   Clear